Fargo, ND

9:36 AM CST on December 09, 2019 (GMT -0600)
Hector International

Weather History for KFAR - October, 2019

Change the Weather History Date:

Saturday, October 12, 2019

  Actual Average Record
Temperature  
Mean Temperature 34 °F 48 °F  
Max Temperature 36 °F 58 °F 84 °F (1956)
Min Temperature 32 °F 37 °F 13 °F (1919)
Degree Days  
Heating Degree Days 31 18  
Month to date heating degree days 235 184  
Since 1 July heating degree days 450 454  
Cooling Degree Days 0 0  
Month to date cooling degree days 0 0  
Year to date cooling degree days 527 548  
Moisture  
Dew Point 31 °F    
Average Humidity 93    
Maximum Humidity 100    
Minimum Humidity 82    
Precipitation  
Precipitation 0.17 in 0.07 in 1.23 in (2008)
Month to date precipitation 3.27 0.95  
Year to date precipitation 27.97 19.55  
Snow  
Snow 0.40 in 0.00 in 0.60 in (2006)
Month to date snowfall 4.5 0.1  
Since 1 July snowfall 4.5 0.1  
Since 1 September snowfall 4.5 0.1  
Snow Depth 4.00 in    
Sea Level Pressure  
Sea Level Pressure 29.48 in    
Wind  
Wind Speed 19 mph ()    
Max Wind Speed 28 mph    
Max Gust Speed 38 mph    
Visibility 4.4 miles    
Events Rain , Snow    
T = Trace of Precipitation, MM = Missing Value Source: Averaged Metar Reports

Daily Weather History Graph

Daily Weather History Graph

Search for Another Location

Airport or City:

Astronomy

Oct. 12, 2019 Rise Set
Actual Time 7:40 AM CDT 6:45 PM CDT
Civil Twilight 7:10 AM CDT 7:16 PM CDT
Nautical Twilight 6:35 AM CDT 7:51 PM CDT
Astronomical Twilight 5:59 AM CDT 8:26 PM CDT
Moon 6:49 PM CDT (10/12) 6:09 AM CDT (10/12)
Length of Visible Light 12h 06m
Length of Day
11h 05m
Waxing Gibbous, 99% of the Moon is Illuminated
Oct 12
Waxing Gibbous
Oct 13
Full
Oct 21
Last Quarter
Oct 27
New
Nov 4
First Quarter

Hourly Weather History & Observations

Time (CDT) Temp. Windchill Dew Point Humidity Pressure Visibility Wind Dir Wind Speed Gust Speed Precip Events Conditions
12:11 AM 32.0 °F 18.6 °F 30.9 °F 96% 29.43 in 1.0 mi West 25.3 mph 38.0 mph 0.01 in Snow Light Snow
12:53 AM 32.0 °F 18.4 °F 30.9 °F 96% 29.46 in 1.2 mi West 26.5 mph 38.0 mph 0.02 in Snow Light Snow
1:02 AM 32.0 °F 18.4 °F 30.9 °F 96% 29.42 in 1.5 mi West 26.5 mph 34.5 mph 0.00 in Snow Light Snow
1:36 AM 32.0 °F 18.9 °F 30.9 °F 96% 29.42 in 1.5 mi West 24.2 mph 35.7 mph 0.00 in Snow Light Snow
1:53 AM 32.0 °F 18.9 °F 30.9 °F 96% 29.45 in 1.8 mi West 24.2 mph 32.2 mph 0.01 in Snow Light Snow
1:56 AM 32.0 °F 19.5 °F 30.2 °F 93% 29.41 in 2.0 mi West 21.9 mph 32.2 mph N/A Snow Light Snow
2:04 AM 32.0 °F 19.5 °F 30.9 °F 96% 29.41 in 3.0 mi West 21.9 mph 31.1 mph 0.00 in Snow Light Snow
2:28 AM 32.0 °F 19.2 °F 30.0 °F 92% 29.41 in 4.0 mi West 23.0 mph 34.5 mph 0.00 in Snow Light Snow
2:53 AM 32.0 °F 19.8 °F 30.0 °F 92% 29.44 in 4.0 mi West 20.7 mph 34.5 mph 0.00 in Snow Light Snow
3:04 AM 32.0 °F 19.5 °F 30.9 °F 96% 29.41 in 4.0 mi West 21.9 mph 34.5 mph 0.00 in Rain Light Freezing Rain
3:53 AM 32.0 °F 20.1 °F 30.9 °F 96% 29.43 in 3.0 mi West 19.6 mph 31.1 mph 0.01 in Snow Light Snow
4:53 AM 32.0 °F 19.5 °F 30.9 °F 96% 29.43 in 4.0 mi West 21.9 mph - 0.00 in Snow Light Snow
5:01 AM 32.0 °F 19.8 °F 30.9 °F 96% 29.40 in 2.5 mi West 20.7 mph 31.1 mph 0.00 in Snow Light Snow
5:08 AM 32.0 °F 20.1 °F 30.9 °F 96% 29.40 in 4.0 mi West 19.6 mph 29.9 mph 0.00 in Snow Light Snow
5:17 AM 32.0 °F 19.8 °F 30.9 °F 96% 29.40 in 5.0 mi West 20.7 mph 31.1 mph 0.00 in   Overcast
5:53 AM 32.0 °F 20.5 °F 30.9 °F 96% 29.43 in 4.0 mi West 18.4 mph 27.6 mph 0.00 in Snow Light Snow
6:05 AM 32.0 °F 19.5 °F 30.9 °F 96% 29.40 in 1.8 mi West 21.9 mph 28.8 mph 0.00 in Snow Light Snow
6:22 AM 32.0 °F 20.5 °F 30.9 °F 96% 29.40 in 2.5 mi West 18.4 mph - 0.00 in Snow Light Snow
6:32 AM 32.0 °F 19.5 °F 30.9 °F 96% 29.40 in 1.8 mi West 21.9 mph - 0.00 in Snow Light Snow
6:40 AM 32.0 °F 20.1 °F 30.9 °F 96% 29.40 in 1.8 mi West 19.6 mph 33.4 mph 0.00 in Snow Light Snow
6:50 AM 32.0 °F 19.5 °F 30.2 °F 93% 29.40 in 1.5 mi West 21.9 mph - 0.00 in Snow Light Snow
6:53 AM 32.0 °F 19.8 °F 30.9 °F 96% 29.43 in 1.5 mi West 20.7 mph 31.1 mph 0.00 in Snow Light Snow
7:08 AM 32.0 °F 19.8 °F 30.9 °F 96% 29.40 in 1.5 mi West 20.7 mph - 0.00 in Snow Light Snow
7:23 AM 32.0 °F 19.8 °F 30.9 °F 96% 29.40 in 1.5 mi West 20.7 mph - 0.00 in Snow Light Snow
7:45 AM 32.0 °F 20.1 °F 30.9 °F 96% 29.40 in 2.0 mi West 19.6 mph - 0.01 in Snow Light Snow
7:53 AM 32.0 °F 20.1 °F 30.9 °F 96% 29.43 in 2.0 mi West 19.6 mph - 0.01 in Snow Light Snow
7:57 AM 32.0 °F 20.1 °F 30.9 °F 96% 29.40 in 1.5 mi West 19.6 mph - 0.00 in Snow Light Snow
8:25 AM 32.0 °F 19.8 °F 30.9 °F 96% 29.40 in 0.8 mi West 20.7 mph - 0.01 in Snow Light Snow
8:46 AM 32.0 °F 19.2 °F 30.9 °F 96% 29.40 in 0.8 mi West 23.0 mph 28.8 mph 0.02 in Snow Light Snow
8:53 AM 32.0 °F 20.5 °F 30.9 °F 96% 29.44 in 0.8 mi West 18.4 mph 28.8 mph 0.02 in Snow Light Snow
8:58 AM 32.0 °F 19.5 °F 30.9 °F 96% 29.40 in 1.0 mi West 21.9 mph 28.8 mph 0.00 in Snow Light Snow
9:18 AM 32.0 °F 20.5 °F 30.9 °F 96% 29.40 in 2.5 mi West 18.4 mph 28.8 mph 0.00 in Snow Light Snow
9:21 AM 32.0 °F 20.1 °F 30.9 °F 96% 29.40 in 4.0 mi WNW 19.6 mph 28.8 mph 0.00 in Snow Light Snow
9:53 AM 33.1 °F 21.5 °F 30.9 °F 92% 29.45 in 5.0 mi WNW 19.6 mph 29.9 mph 0.00 in Snow Light Snow
10:41 AM 33.1 °F 22.2 °F 30.9 °F 92% 29.43 in 2.5 mi WNW 17.3 mph - 0.00 in Snow Light Snow
10:50 AM 33.8 °F 23.2 °F 30.2 °F 87% 29.44 in 1.0 mi WNW 17.3 mph - 0.00 in Snow Light Snow
10:53 AM 33.1 °F 22.6 °F 30.9 °F 92% 29.47 in 1.0 mi WNW 16.1 mph - 0.00 in Snow Light Snow
11:09 AM 34.0 °F 23.8 °F 30.9 °F 89% 29.43 in 3.0 mi WNW 16.1 mph - 0.00 in Snow Light Snow
11:26 AM 34.0 °F 23.0 °F 32.0 °F 92% 29.44 in 2.0 mi WNW 18.4 mph 27.6 mph 0.01 in Snow Light Snow
11:34 AM 34.0 °F 23.0 °F 32.0 °F 92% 29.44 in 1.5 mi WNW 18.4 mph - 0.01 in Snow Light Snow
11:42 AM 34.0 °F 23.0 °F 32.0 °F 92% 29.44 in 3.0 mi WNW 18.4 mph - 0.01 in Snow Light Snow
11:53 AM 34.0 °F 22.7 °F 32.0 °F 92% 29.48 in 4.0 mi WNW 19.6 mph - 0.01 in Snow Light Snow
12:02 PM 34.0 °F 23.0 °F 32.0 °F 92% 29.45 in 1.8 mi WNW 18.4 mph - 0.00 in Snow Light Snow
12:17 PM 34.0 °F 23.4 °F 32.0 °F 92% 29.45 in 3.0 mi WNW 17.3 mph - 0.00 in Snow Light Snow
12:45 PM 35.1 °F 26.4 °F 32.0 °F 89% 29.47 in 6.0 mi WNW 12.7 mph - 0.00 in Snow Light Snow
12:53 PM 35.1 °F 24.5 °F 32.0 °F 89% 29.50 in 9.0 mi WNW 18.4 mph - 0.00 in   Overcast
1:32 PM 35.1 °F 25.5 °F 32.0 °F 89% 29.48 in 8.0 mi WNW 15.0 mph - 0.00 in   Overcast
1:53 PM 35.1 °F 24.5 °F 33.1 °F 92% 29.52 in 10.0 mi WNW 18.4 mph - 0.00 in   Overcast
2:53 PM 35.1 °F 24.5 °F 32.0 °F 89% 29.53 in 9.0 mi WNW 18.4 mph - 0.00 in Snow Light Snow
3:46 PM 36.0 °F 24.7 °F 32.0 °F 86% 29.52 in 10.0 mi WNW 21.9 mph 28.8 mph 0.00 in   Overcast
3:53 PM 35.1 °F 23.5 °F 32.0 °F 89% 29.55 in 10.0 mi WNW 21.9 mph 29.9 mph 0.00 in   Overcast
4:31 PM 36.0 °F 25.0 °F 32.0 °F 86% 29.53 in 9.0 mi NW 20.7 mph 31.1 mph 0.00 in Snow Light Snow
4:53 PM 36.0 °F 26.0 °F 32.0 °F 86% 29.57 in 9.0 mi WNW 17.3 mph 28.8 mph 0.00 in   Overcast
5:05 PM 36.0 °F 24.7 °F 32.0 °F 86% 29.54 in 10.0 mi WNW 21.9 mph 28.8 mph N/A   Overcast
5:53 PM 36.0 °F 25.6 °F 30.9 °F 82% 29.60 in 10.0 mi NW 18.4 mph 31.1 mph N/A   Overcast
6:53 PM 35.1 °F 24.8 °F 30.9 °F 85% 29.62 in 10.0 mi WNW 17.3 mph - N/A   Overcast
7:53 PM 35.1 °F 24.1 °F 30.9 °F 85% 29.64 in 10.0 mi WNW 19.6 mph - N/A   Overcast
8:45 PM 35.1 °F 25.5 °F 32.0 °F 89% 29.62 in 8.0 mi NW 15.0 mph - N/A   Overcast
8:53 PM 34.0 °F 25.5 °F 32.0 °F 92% 29.66 in 3.0 mi North 11.5 mph 21.9 mph 0.00 in Snow Light Snow
9:17 PM 33.1 °F 26.9 °F 32.0 °F 96% 29.62 in 2.5 mi NNW 6.9 mph - 0.02 in Snow Light Snow
9:22 PM 33.8 °F 27.7 °F 33.8 °F 100% 29.62 in 3.0 mi NNW 6.9 mph - N/A   Overcast
9:53 PM 34.0 °F 26.6 °F 33.1 °F 96% 29.67 in 9.0 mi NW 9.2 mph - 0.03 in Snow Light Snow
10:01 PM 34.0 °F 26.6 °F 33.1 °F 96% 29.63 in 5.0 mi NW 9.2 mph - 0.00 in   Overcast
10:24 PM 34.0 °F 26.0 °F 33.1 °F 96% 29.64 in 10.0 mi NW 10.4 mph - 0.00 in   Overcast
10:53 PM 34.0 °F 28.0 °F 33.1 °F 96% 29.67 in 10.0 mi NW 6.9 mph - 0.00 in   Overcast
11:21 PM 34.0 °F 24.6 °F 32.0 °F 92% 29.63 in 7.0 mi WNW 13.8 mph 20.7 mph N/A   Overcast
11:49 PM 33.8 °F 24.8 °F 32.0 °F 93% 29.63 in 10.0 mi WNW 12.7 mph - N/A   Overcast
11:53 PM 34.0 °F 24.6 °F 32.0 °F 92% 29.67 in 10.0 mi WNW 13.8 mph - N/A   Overcast